Location: Unspecified
(0.0000°N, 0.0000°E)
Time: 17:50:00
(UTC+00:00)

Courier 1B - All Passes

Search period start: 18 January 2020 00:00
Search period end: 28 January 2020 00:00
Orbit: 962 x 1209 km, 28.3° (Epoch: 17 January)

Date Brightness Start Highest point End Pass type
(mag) Time Alt. Az. Time Alt. Az. Time Alt. Az.
18 Jan - 00:03:47 10° SSW 00:09:56 33° SSE 00:16:22 10° E night (unlit)
18 Jan - 01:57:03 10° WSW 02:04:11 73° NNW 02:11:47 10° NE night (unlit)
18 Jan - 03:53:07 10° WNW 03:58:52 24° NNW 04:04:49 10° NNE visible
18 Jan - 09:47:15 10° N 09:48:30 10° NNE 09:49:43 10° NNE daylight
18 Jan - 11:37:34 10° NNW 11:43:57 30° NNE 11:50:02 10° E daylight
18 Jan - 13:31:05 10° WNW 13:38:22 84° SSW 13:45:12 10° ESE daylight
18 Jan - 15:27:15 10° W 15:32:36 24° SSW 15:37:45 10° SSE daylight
18 Jan - 23:10:42 10° SSW 23:16:00 24° SSE 23:21:31 10° E night (unlit)
19 Jan - 01:03:17 10° WSW 01:10:17 83° SSE 01:17:45 10° ENE night (unlit)
19 Jan - 02:58:27 10° W 03:04:45 31° NNW 03:11:20 10° NNE visible
19 Jan - 04:58:26 10° NNW 05:00:14 11° NNW 05:02:03 10° N visible
19 Jan - 10:44:06 10° NNW 10:49:51 23° NNE 10:55:24 10° ENE daylight
19 Jan - 12:37:06 10° NW 12:44:30 72° NNE 12:51:27 10° ESE daylight
19 Jan - 14:32:27 10° W 14:38:42 33° SSW 14:44:40 10° SSE daylight
19 Jan - 22:17:52 10° SSW 22:22:02 17° SSE 22:26:18 10° ESE visible
20 Jan - 00:09:43 10° SW 00:16:26 60° SSE 00:23:35 10° ENE night (unlit)
20 Jan - 02:04:06 10° W 02:10:43 41° NNW 02:17:43 10° NE night (unlit)
20 Jan - 04:02:11 10° NW 04:05:51 14° NNW 04:09:36 10° N visible
20 Jan - 09:50:48 10° NNW 09:55:39 18° NNE 10:00:23 10° ENE daylight
20 Jan - 11:43:14 10° NW 11:50:35 53° NNE 11:57:30 10° ESE daylight
20 Jan - 13:37:53 10° WNW 13:44:50 46° SSW 13:51:24 10° SE daylight
20 Jan - 15:36:15 10° SW 15:39:26 13° SSW 15:42:33 10° S daylight
20 Jan - 21:25:37 10° S 21:28:00 12° SSE 21:30:23 10° SE visible
20 Jan - 23:16:19 10° SW 23:22:36 42° SSE 23:29:13 10° E night (unlit)
21 Jan - 01:10:01 10° WSW 01:16:46 56° NNW 01:23:59 10° NE night (unlit)
21 Jan - 03:06:50 10° WNW 03:11:35 18° NNW 03:16:30 10° NNE visible
21 Jan - 08:57:46 10° N 09:01:20 14° NNE 09:04:53 10° NE daylight
21 Jan - 10:49:31 10° NW 10:56:36 39° NNE 11:03:20 10° E daylight
21 Jan - 12:43:33 10° WNW 12:50:59 65° SSW 12:57:56 10° SE daylight
21 Jan - 14:40:34 10° WSW 14:45:23 19° SSW 14:50:02 10° SSE daylight
21 Jan - 22:23:06 10° SSW 22:28:46 30° SSE 22:34:39 10° E visible
22 Jan - 00:16:08 10° WSW 00:22:54 77° NNW 00:30:07 10° NE night (unlit)
22 Jan - 02:11:57 10° WNW 02:17:26 24° NNW 02:23:11 10° NNE night (unlit)
22 Jan - 08:05:42 10° N 08:06:56 10° NNE 08:08:09 10° NNE daylight
22 Jan - 09:55:55 10° NNW 10:02:30 29° NNE 10:08:51 10° E daylight
22 Jan - 11:49:23 10° WNW 11:57:04 89° SSW 12:04:18 10° ESE daylight
22 Jan - 13:45:26 10° W 13:51:24 27° SSW 13:57:06 10° SSE daylight
22 Jan - 21:30:04 10° SSW 21:34:53 21° SSE 21:39:49 10° ESE visible
22 Jan - 23:22:27 10° SW 23:29:06 78° SSE 23:36:08 10° ENE night (unlit)
23 Jan - 01:17:25 10° W 01:23:24 31° NNW 01:29:43 10° NNE night (unlit)
23 Jan - 03:17:16 10° NNW 03:18:44 11° NNW 03:20:12 10° N visible
23 Jan - 09:02:29 10° NNW 09:08:21 23° NNE 09:14:05 10° ENE daylight
23 Jan - 10:55:24 10° NW 11:03:07 68° NNE 11:10:27 10° ESE daylight
23 Jan - 12:50:38 10° W 12:57:27 37° SSW 13:03:55 10° SE daylight
23 Jan - 14:50:34 10° SW 14:52:20 11° SSW 14:54:04 10° S daylight
23 Jan - 20:37:19 10° S 20:40:56 15° SSE 20:44:34 10° ESE visible
23 Jan - 22:28:56 10° SW 22:35:19 55° SSE 22:42:00 10° ENE visible
24 Jan - 00:23:09 10° W 00:29:28 42° NNW 00:36:08 10° NE night (unlit)
24 Jan - 02:21:02 10° NW 02:24:26 14° NNW 02:27:54 10° N night (unlit)
24 Jan - 08:09:16 10° NNW 08:14:06 17° NNE 08:18:53 10° ENE daylight
24 Jan - 10:01:34 10° NW 10:09:07 51° NNE 10:16:23 10° ESE daylight
24 Jan - 11:56:06 10° WNW 12:03:31 51° SSW 12:10:32 10° SE daylight
24 Jan - 13:54:03 10° WSW 13:58:11 16° SSW 14:02:11 10° S daylight
24 Jan - 19:45:24 10° S 19:46:53 11° SSE 19:48:21 10° SE visible
24 Jan - 21:35:34 10° SW 21:41:32 38° SSE 21:47:41 10° E visible
24 Jan - 23:29:08 10° WSW 23:35:36 58° NNW 23:42:26 10° NE night (unlit)
25 Jan - 01:25:47 10° WNW 01:30:14 18° NNW 01:34:52 10° NNE night (unlit)
25 Jan - 07:16:24 10° N 07:19:45 13° NNE 07:23:07 10° NE daylight
25 Jan - 09:07:54 10° NW 09:15:03 38° NNE 09:22:03 10° E daylight
25 Jan - 11:01:48 10° WNW 11:09:34 71° SSW 11:16:58 10° SE daylight
25 Jan - 12:58:34 10° WSW 13:04:05 22° SSW 13:09:24 10° SSE daylight
25 Jan - 20:42:21 10° SSW 20:47:44 27° SSE 20:53:11 10° E visible
25 Jan - 22:35:17 10° WSW 22:41:49 81° NNW 22:48:39 10° ENE night (unlit)
26 Jan - 00:30:58 10° WNW 00:36:10 23° NNW 00:41:37 10° NNE night (unlit)
26 Jan - 08:14:23 10° NNW 08:20:57 28° NNE 08:27:25 10° E daylight
26 Jan - 10:07:41 10° WNW 10:15:35 86° NNE 10:23:11 10° ESE daylight
26 Jan - 12:03:31 10° W 12:10:03 30° SSW 12:16:18 10° SSE daylight
26 Jan - 19:49:18 10° SSW 19:53:50 20° SSE 19:58:23 10° ESE visible
26 Jan - 21:41:37 10° SW 21:48:04 72° SSE 21:54:43 10° ENE visible
26 Jan - 23:36:29 10° W 23:42:13 31° NNW 23:48:14 10° NNE night (unlit)
27 Jan - 01:36:58 10° NNW 01:37:21 10° NNW 01:37:44 10° NNW night (unlit)
27 Jan - 07:21:04 10° NNW 07:26:45 21° NNE 07:32:27 10° ENE daylight
27 Jan - 09:13:46 10° NW 09:21:34 65° NNE 09:29:12 10° ESE daylight
27 Jan - 11:08:48 10° W 11:16:01 41° SSW 11:22:59 10° SE daylight
27 Jan - 13:07:49 10° SW 13:10:59 13° SSW 13:14:06 10° S daylight
27 Jan - 18:56:31 10° S 18:59:52 14° SSE 19:03:10 10° SE visible
27 Jan - 20:48:05 10° SW 20:54:21 50° SSE 21:00:40 10° ENE visible
27 Jan - 22:42:15 10° W 22:48:22 43° NNW 22:54:43 10° NE night (unlit)
